STARLINK-1942, 46794

Orbit data source: Space-Track

STARLINK-1942, 46794 is a payload satellite owned by SpaceX/Seattle (US) in LEO that was launched on Sat, 24 Oct 2020 UTC via an FALCON 9 launch vehicle from the Air Force Eastern Test Range (AFETR). Payload-class satellites include a variety of spacecraft equipped with specific instruments for various scientific and technological missions. These include communications satellites like Starlink; space stations such as the ISS; scientific satellites like the Hubble; Earth observation satellites from companies like Planet Labs, Umbra, and HawkEye 360; GPS; miniature CubeSats for education and research; and military/defense satellites.

Loading next visibility...
Identifier
46794, 2020-074BH
Orbit
LEO
Country
Flag of USUS
Related business
Manufacturer
SpaceX/Seattle
Mission
Partially operational Commercial Communications
Bus & Motor
STARLINK, Unknown motor
Mass
260 kg wet, ~248 kg dry
Launch date (UTC)
2020-10-24 (6 years ago)
Launch vehicle
FALCON 9
Launch site
Air Force Eastern Test Range (AFETR)
Object type
Payload
Rocket body
Debris
Shape & HBR
Box + 1 Pan, 10.1 m
Radar Cross Section
13.562 m², Large (>1 m²)

Expand to show TLE details & history
Last TLE update: 21 hours ago

TLE from 21 hours ago
0 STARLINK-1942
1 46794U 20074BH  26133.01512992  .00085410  00000-0  10826-2 0  9994
2 46794  53.0425 344.0841 0005925 186.5611 173.5324 15.58742548307064
Epoch: 2026-05-13T00:21Z
TLE epoch observation values (Epoch: 2026-05-13T00:21:47.225Z)
Latitude
-0°
Longitude
107.8561°
Altitude
396.179 km
Speed
7.672 km/s
True Right ascension
22h 56m 20s
True Declination
0° 00' 00"
Sunlit
Object was in daylight at epoch
Visualization orbit readout
Latitude
Unknown
Longitude
Unknown
Altitude
Unknown
Speed
Unknown
Apparent Right ascension
Unknown
Apparent Declination
Unknown
Sunlit
N/A
Visualization observer readout
Local Sidereal Time
05:47:59
Azimuth
Unknown
Elevation
Unknown
Doppler factor
Unknown
Orbital elements
Apogee altitude
395.585 km
Perigee altitude
387.563 km
Semi-major axis
6,769.711 km
Eccentricity
0.00059
Inclination
53.0425°
RAAN
344.0841°
Arg. of periapsis
186.5611°
True anomaly
173.54004°
Mean anomaly
173.5324°
Eccentric anomaly
173.53622°
Mean motion
3.89662 °/min
Orbital period
92.39 mins
BSTAR
0.0010826
Loading maneuver chart data...
Computing Atmospheric mass density...

Documentation

Showing up to 5 results
|